Regional Weather Roundup
Issued by NWS

Home | Current Version | Previous Version | Graphics & Text | Print | Product List | Glossary On
Versions: 1 2 3 4 5 6 7 8 9 10 11 12 13 14 15 16 17 18 19 20 21 22 23 24 25 26 27 28
000
ASUS45 KCYS 202210
RWRWY

WYOMING REGIONAL WEATHER ROUNDUP
NATIONAL WEATHER SERVICE CHEYENNE WY
400 PM MDT FRI OCT 20 2017

NOTE:  "FAIR" INDICATES FEW OR NO CLOUDS BELOW 12,000 FEET
WITH NO SIGNIFICANT WEATHER AND/OR OBSTRUCTIONS TO VISIBILITY.

WYZ001-202300-
YELLOWSTONE NATIONAL PARK

CITY           SKY/WX    TMP DP  RH WIND       PRES   REMARKS
LK YELLOWSTONE   N/A     32  25  75 VRB6G16   29.70R WCI  26
W YELLOWSTONE  NOT AVBL

$$
WYZ002>013-054>058-071-098>099-202300-
NORTHERN WYOMING

CITY           SKY/WX    TMP DP  RH WIND       PRES   REMARKS
JACKSON        CLOUDY    37  29  72 S22       29.75  WCI  26
CODY           FAIR      54  33  45 W22G29    29.43R
GREYBULL       LGT RAIN  68  35  29 W17       29.33R
WORLAND        PTSUNNY   71  28  20 SW17G28   29.33R
SHERIDAN       FAIR      77  32  19 S21G26    29.29S
BUFFALO        FAIR      73  22  14 SW18G32   29.37F
GILLETTE       FAIR      73  30  20 SW22G30   29.36S
HULETT         FAIR      75  32  20 SW22G32   29.36S
NEWCASTLE      FAIR      73  27  17 SW17      29.41F

$$
WYZ014>020-022>026-101>103-202300-
CENTRAL WYOMING

CITY           SKY/WX    TMP DP  RH WIND       PRES   REMARKS
BIG PINEY      FAIR      45  26  47 NW25G35   29.70R
PINEDALE       MOCLDY    45  27  49 NW28G35   29.70R
DUBOIS         FAIR      43  27  52 W38G54    29.54R
LANDER         FAIR      63  26  24 W21G33    29.47R
RIVERTON       FAIR      64  27  24 W30G37    29.45R
CASPER         FAIR      69  25  19 SW24G31   29.45F
DOUGLAS        FAIR      73  24  16 SW26G37   29.46F

$$
WYZ021-027>030-104>119-202300-
SOUTHERN WYOMING

CITY           SKY/WX    TMP DP  RH WIND       PRES   REMARKS
EVANSTON       SNOW      33  32  96 W16G26    29.83R VSB 1/2 WCI  23
KEMMERER       LGT SNOW  34  32  93 W35G41    29.76R WCI  19
FORT BRIDGER   CLOUDY    42  29  60 W25G38    29.82R
ROCK SPRINGS   LGT RAIN  46  33  60 W29G49    29.68R
DIXON          CLOUDY    64  25  23 SW22G38   29.66S
RAWLINS        FAIR      64  23  21 SW25G41   29.60S
SARATOGA       FAIR      59  28  31 SW17G25   29.64F
LARAMIE        FAIR      66  20  17 W30G39    29.64F
CHEYENNE       FAIR      70  30  22 S15       29.60S
TORRINGTON     FAIR      78  32  18 SE14      29.44F
PINE BLUFFS    FAIR      73  28  19 S17G23    29.56F

$$




USA.gov is the U.S. government's official web portal to all federal, state and local government web resources and services.